Probability
0 0 0 0 0 0 0 0 0 0 0 0 0 0 0 0 0 0 0 0 0 0 0 0 0 0 0 0 0 0 0 0 0 0 0 0 0 0
0 0 0 0 0 0 0 0 0 0 0 0 0 0 0 0 0 0 0 0 0 0 0 0 0 0 0 0 0 0 0 0 0 0 0 0 0 0
0 0 0 0 0 1 0 0 0 0 0 0 0 0 0 0 0 0 0 0 0 0 0 0 0 0 0 0 0 0 0 0 0 0 0 0 0 0
0 0 0 0 0 0 0 0 0 0 0 0 0 0 0 0 0 0 0 0 0 0 0 0 0 0 0 0 0 0 0 0 0 0 0 0 0 0
0 0 0 0 0 0 0 0 0 0 0 0 0 0 0 0 0 0 0 0 0 0 0 0 0 0 0 0 0 0 0 0 0 0 0 0 0 0
0 0 0 0 0 0 0 0 0 0 0 0 0 0 0 0 0 0 0 0 0 0 0 0 0 0 0 0 0 0 0 0 0 0 0 0 0 0
0 0 0 0 0 0 0 0 0 0 0 0 0 0 0 0 0 0 0 0 0 0 0 0 0 0 0 0 0 0 0 0 0 0 0 0 0 0
0 0 0 0 0 0 0 0 0 0 0 0 0 0 0 0 0 0 0 0 0 0 0 0 0 0 0 0 0 0 0 0 0 0 0 0 0 0
0 0 0 0 0 0 0 0 0 0 0 0 0 0 0 0 0 0 0 0 0 0 0 0 0 0 0 0 0 0 0 0 0 0 0 0 0 0
0 0 0 0 0 0 0 0 0 0 0 0 0 0 0 0 0 0 0 0 0 0 0 0 0 0 0 0 0 0 0 0 0 0 0 0 0 0
0 0 0 0 0 0 0 0 0 0 0 0 0 0 0 0 0 0 0 0 0 0 0 0 0 0 0 0 0 0 0 0 0 0 0 0 0 0
0 0 0 0 0 0 0 0 0 0 0 0 0 0 0 0 0 0 0 0 0 0 0 0 0 0 0 0 0 0 0 0 0 0 0 0 0 0
0 0 0 0 0 0 0 0 0 0 0 0 0 0 0 0 0 0 0 0 0 0 0 0 0 0 0 0 0 0 0 0 0 0 0 0 0 0
0 0 0 0 0 0 0 0 0 0 0 0 0 0 0 0 0 0 0 0 0 0 0 0 0 0 0 0 0 0 0 0 0 0 0 0 0 0
0 0 0 0 0 0 0 0 0 0 0 0 0 0 0 0 0 0 0 0 0 0 0 0 0 0 0 0 0 0 0 0 0 0 0 0 0 0
0 0 0 0 0 0 0 0 0 0 0 0 0 0 0 0 0 0 0 0 0 0 0 0 0 0 0 0 0 0 0 0 0 0 0 0 0 0
0 0 0 0 0 0 0 0 0 0 0 0 0 0 0 0 0 0 0 0 0 0 0 0 0 0 0 0 0 0 0 0 0 0 0 0 0 0
0 0 0 0 0 0 0 0 0 0 0 0 0 0 0 0 0 0 0 0 0 0 0 0 0 0 0 0 0 0 0 0 0 0 0 0 0 0
0 0 0 0 0 0 0 0 0 0 0 0 0 0 0 0 0 0 0 0 0 0 0 0 0 0 0 0 0 0 0 0 0 0 0 0 0 0
0 0 0 0 0 0 0 0 0 0 0 0 0 0 0 0 0 0 0 0 0 0 0 0 0 0 0 0 0 0 0 0 0 0 0 0 0 0
0 0 0 0 0 0 0 0 0 0 0 0 0 0 0 0 0 0 0 0 0 0 0 0 0 0 0 0 0 0 0 0 0 0 0 0 0 0
0 0 0 0 0 0 0 0 0 0 0 0 0 0 0 0 0 0 0 0 0 0 0 0 0 0 0 0 0 0 0 0 0 0 0 0 0 0
0 0 0 0 0 0 0 0 0 0 0 0 0 0 0 0 0 0 0 0 0 0 0 0 0 0 0 0 0 0 0 0 0 0 0 0 0 0
Wind_Speed
6 7 6 6 5 6 6 6 7 9 9 8 6 7 7 7 8 9 9 12 14 14 13 11 9 9 9 9 8 7 7 7 7 8 7 8 8 9
4 6 7 5 5 6 6 6 7 8 9 6 6 5 6 6 9 9 9 11 13 14 13 11 11 11 11 10 9 9 8 8 8 8 8 8 8 8
5 6 8 7 6 6 6 6 6 7 10 7 5 5 7 8 7 8 8 8 8 14 14 13 13 13 12 11 10 9 9 8 8 8 8 8 7 8
5 6 7 6 8 6 6 7 7 8 9 10 6 5 7 8 8 8 7 6 7 11 14 14 14 14 13 12 11 10 9 8 7 7 6 7 7 8
5 6 6 6 7 6 7 7 7 7 7 8 7 5 5 5 6 6 7 6 6 8 12 13 14 15 14 13 11 10 9 8 7 6 5 6 6 6
5 5 6 6 7 7 7 7 7 7 7 7 7 6 5 4 5 6 6 6 6 5 8 9 11 13 13 13 12 10 9 9 8 7 5 5 4 5
5 5 5 6 8 8 6 7 7 7 7 7 7 6 6 5 6 5 7 5 5 5 4 5 6 6 7 10 11 11 10 10 9 8 6 5 4 4
5 5 5 6 7 9 11 11 11 10 9 8 8 8 9 8 7 6 5 5 5 5 5 5 4 5 5 5 9 11 11 10 9 9 7 5 3 3
5 5 5 5 7 7 8 10 11 13 13 11 11 11 10 8 7 8 8 7 6 4 5 4 4 5 4 5 11 11 11 11 9 8 6 4 3 2
5 6 6 6 6 7 8 8 8 8 9 8 9 9 8 7 8 8 7 5 2 2 4 4 3 3 3 4 10 12 11 11 10 8 7 5 3 1
6 6 7 7 8 9 8 8 9 8 7 8 9 10 11 10 8 5 5 5 4 3 3 3 3 2 2 3 5 10 10 10 9 9 7 6 4 2
6 6 7 8 10 10 8 7 8 8 7 6 6 7 7 7 8 7 6 6 3 3 5 4 3 3 2 2 3 4 6 8 9 9 8 6 5 3
6 6 6 10 11 11 10 7 9 9 7 6 5 5 4 4 4 4 4 4 5 4 5 5 4 4 3 3 2 3 4 4 5 6 7 7 6 4
7 6 7 12 13 12 9 9 10 9 5 4 4 4 4 4 3 2 2 1 1 3 6 6 4 4 4 4 3 4 3 3 3 4 3 6 6 5
7 10 12 13 12 9 9 10 8 5 4 4 4 4 4 3 2 1 1 2 2 2 3 3 4 4 4 4 4 5 4 3 3 3 3 3 3 3
8 9 11 10 8 8 8 6 4 4 4 4 4 4 3 2 2 1 1 2 2 1 2 2 3 5 4 4 4 5 5 5 5 4 4 3 3 3
9 7 6 6 6 5 5 5 4 4 4 3 4 3 2 2 2 1 2 2 2 3 3 3 3 3 2 3 4 5 5 4 5 5 4 4 3 3
8 6 6 6 6 6 6 6 4 4 4 4 4 3 3 2 2 2 2 2 3 3 3 4 5 4 3 2 0 5 4 4 4 5 4 4 4 3
6 5 6 6 6 6 6 6 5 5 4 4 4 3 3 2 2 2 2 2 2 3 3 4 4 5 5 4 2 2 4 5 5 5 4 3 3 3
5 6 6 7 7 6 6 6 5 5 4 4 3 3 3 2 2 2 2 3 3 3 3 3 4 4 4 3 3 3 4 5 5 5 4 3 2 2
6 6 6 7 6 6 6 5 5 5 5 4 3 3 3 2 2 2 2 4 3 3 4 3 3 4 3 4 4 3 3 3 3 3 5 4 3 3
6 7 7 7 6 6 6 5 5 5 4 4 4 3 3 2 2 3 2 3 3 3 3 3 4 4 3 4 4 5 5 5 4 5 3 2 2 4
7 7 7 7 6 6 5 5 6 5 4 4 4 3 3 2 2 1 2 2 2 3 4 4 4 3 3 4 5 5 7 6 5 5 3 3 3 5
Wind_Direction
236 237 239 242 243 246 249 246 250 263 261 254 248 235 233 234 224 227 233 227 228 231 229 224 217 209 210 214 222 230 239 246 255 258 264 274 283 292
238 240 242 243 243 243 244 248 250 257 265 257 252 248 233 236 230 232 234 227 227 226 224 217 209 207 210 212 218 224 232 243 251 256 264 271 281 292
251 246 245 246 245 245 246 246 249 252 261 269 265 255 239 239 236 234 231 228 227 223 222 219 213 211 212 214 216 221 229 243 247 250 262 269 277 287
256 258 254 250 250 252 251 250 251 251 255 265 267 256 246 241 239 236 234 233 232 222 222 223 219 216 212 211 214 219 226 232 234 242 256 269 276 283
263 265 264 260 255 254 258 258 256 258 258 262 265 264 259 244 241 241 237 235 235 224 222 224 222 216 212 210 209 212 218 219 225 234 250 268 274 280
267 266 265 262 260 259 256 257 260 261 260 261 262 260 257 245 231 233 235 230 231 223 223 224 221 213 210 208 206 206 210 212 217 221 234 260 275 288
276 276 274 269 266 265 264 262 261 260 260 257 259 259 251 234 229 228 235 232 235 218 218 219 213 209 205 207 204 201 205 210 214 216 223 242 268 290
286 287 286 275 276 275 270 266 259 256 257 258 256 253 253 249 240 229 227 225 236 204 205 219 206 210 205 200 199 201 205 207 210 209 213 223 240 267
295 297 300 294 290 282 279 275 266 262 259 258 257 255 255 248 239 231 224 225 237 193 191 214 203 215 205 201 197 200 203 201 202 198 199 208 215 237
308 302 297 297 295 296 291 283 279 275 273 269 263 263 265 257 240 233 232 228 243 200 189 208 196 207 193 196 198 198 199 199 195 193 195 199 200 209
315 308 302 298 303 306 296 288 289 289 286 281 282 280 274 264 251 232 213 206 220 207 194 194 172 164 176 194 193 194 195 196 194 193 192 191 186 188
317 313 308 310 312 310 300 291 288 293 299 301 295 289 281 264 246 229 214 211 201 200 185 174 159 149 164 176 181 186 190 192 193 194 191 185 183 192
316 315 315 320 316 312 307 295 291 296 292 291 291 290 286 273 258 248 232 213 203 204 173 164 158 159 154 149 172 185 181 177 185 191 192 188 188 196
317 313 313 317 314 310 305 302 301 298 290 287 283 279 276 272 266 260 253 242 215 194 170 160 156 164 154 157 168 170 176 175 178 182 180 184 189 190
316 314 313 314 312 306 305 306 303 296 291 286 283 282 280 274 267 251 127 101 76 90 145 154 153 157 160 166 159 164 164 174 181 181 179 182 185 184
318 316 314 312 308 307 311 310 303 295 292 286 287 291 293 280 261 245 203 157 128 98 81 106 149 159 163 158 160 168 168 167 174 178 174 176 182 187
321 318 322 323 322 322 320 317 313 309 300 299 294 289 288 283 273 248 204 180 179 171 150 124 109 99 94 139 160 167 165 165 173 171 173 180 191 194
327 324 327 327 324 322 319 317 314 309 305 301 293 288 282 274 265 237 215 200 191 183 167 154 145 136 119 52 114 167 165 166 166 172 180 184 193 196
335 330 326 324 320 319 317 314 311 308 302 294 289 285 278 271 256 236 217 203 189 179 168 164 171 173 175 179 154 181 171 161 161 169 181 187 188 183
337 329 324 321 319 318 317 315 313 312 305 297 292 288 279 266 251 244 225 205 189 174 167 171 183 190 191 168 142 142 173 167 165 166 163 153 124 117
329 324 320 318 318 318 316 315 312 311 307 302 296 289 280 264 252 244 223 194 185 179 179 181 168 142 113 111 119 127 136 158 152 154 154 153 155 168
321 319 318 317 316 315 314 314 314 312 309 304 301 295 286 270 255 238 213 195 187 177 166 141 136 142 155 168 159 145 137 133 129 118 99 99 156 181
319 316 314 314 314 314 313 312 312 310 309 304 303 299 293 281 260 231 199 185 169 161 153 146 144 146 149 154 153 146 143 145 140 135 119 100 90 88